Regional Weather Roundup
Issued by NWS

Home | Current Version | Previous Version | Text Only | Print | Product List | Glossary On
Versions: 1 2 3 4 5 6 7 8 9 10 11 12 13 14 15 16 17 18 19 20 21 22 23 24 25 26 27 28 29 30 31 32 33 34 35 36 37 38 39 40 41 42 43 44 45 46 47 48 49 50
000
ASUS46 KPQR 311310
RWROR

OREGON REGIONAL WEATHER ROUNDUP
NATIONAL WEATHER SERVICE PORTLAND OR
600 AM PDT THU JUL 31 2014

NOTE: "FAIR" INDICATES FEW OR NO CLOUDS BELOW 12,000 FEET WITH
NO SIGNIFICANT WEATHER AND/OR OBSTRUCTIONS TO VISIBILITY.

ORZ001>013-311400-
NORTHWEST OREGON


CITY           SKY/WX    TMP DP  RH WIND       PRES   REMARKS
ASTORIA        CLEAR     50  49  96 CALM      30.10F
NEWPORT        CLEAR     46  46 100 CALM      30.10S
PORTLAND       PTCLDY    62  52  69 NW6       30.05F
VANCOUVER WA   CLEAR     62  50  64 CALM      30.05F
SCAPPOOSE      CLEAR     60  50  69 N3        30.04F
HILLSBORO      CLEAR     54  32  43 CALM      30.05S
AURORA         CLEAR     59  55  87 CALM      30.06S
MCMINNVILLE    CLEAR     56  53  90 W3        30.05F
SALEM          CLEAR     63  54  72 NW6       30.03F
CORVALLIS        N/A     57  52  82 W5        30.05F
EUGENE         PTCLDY    58  53  84 NW7       30.04S
$$

ORZ021-028-311400-
SOUTHWEST OREGON


CITY           SKY/WX    TMP DP  RH WIND       PRES   REMARKS
NORTH BEND     CLOUDY    52  52 100 CALM      30.08R
BROOKINGS      FOG       52  52 100 CALM      29.99S VSB 1/4
ROSEBURG       CLEAR     65  55  70 CALM      30.03R
SEXTON SUMMIT  CLEAR     65  49  56 N14       30.12F
MEDFORD        PTCLDY    68  57  68 CALM      30.01S
$$

ORZ009-041-311400-
COLUMBIA GORGE


CITY           SKY/WX    TMP DP  RH WIND       PRES   REMARKS
TROUTDALE      CLEAR     58  55  90 CALM      30.04F
THE DALLES     CLEAR     65  55  70 CALM      29.98S
$$

ORZ029>031-042>050-061>064-311400-
EASTERN OREGON


CITY           SKY/WX    TMP DP  RH WIND       PRES   REMARKS
REDMOND        MOCLDY    64  42  44 CALM      30.11F
BEND           CLOUDY    68  46  45 W5        30.15
KLAMATH FALLS  CLEAR     53  46  77 CALM      30.17S
LAKEVIEW       PTCLDY    54  39  58 E3        30.22S
HERMISTON      PTCLDY    61  53  75 CALM      29.98R
PENDLETON      CLEAR     67  45  45 SE7       30.02R
JOHN DAY       SUNNY     65  41  41 SE9       30.16S
MEACHAM        CLEAR     50  46  86 CALM      30.16S
LA GRANDE      CLEAR     57  37  47 CALM      30.11R
BAKER CITY     CLEAR     52  46  80 S3        30.15R
BURNS          PTCLDY    58  41  53 SW7       30.17S
ROME             N/A     58  39  49 CALM      30.15S
ONTARIO        CLEAR     60  52  74 W5        30.09S
$$


USA.gov is the U.S. government's official web portal to all federal, state and local government web resources and services.